Location: La Oliva
(42.2466°N, 2.9955°E)
Time: 10:42:31
(UTC+00:00)

Resurs 01 Rocket - Pass Details

Date: 22 April 2021
Orbit: 634 x 644 km, 97.9° (Epoch: 10 May)

Event Time Altitude Azimuth Distance (km) Brightness Sun altitude
Exits shadow 19:08:36 - 107° (ESE) 2,247 3.7 -6.2°
Reaches altitude 10° 19:09:23 10° 100° (E) 2,041 3.6 -6.4°
Maximum altitude 19:12:02 16° 63° (ENE) 1,693 3.4 -6.8°
Drops below altitude 10° 19:14:41 10° 27° (NNE) 2,049 4.2 -7.3°
Sets 19:17:39 0° 5° (N) 2,964 5.3 -7.8°
